Location: Presov
(49.0000°N, 21.2500°E)
Time: 06:56:53
(UTC+02:00)

Transit 2A Rocket - Pass Details

Date: 19 April 2021
Orbit: 594 x 909 km, 66.7° (Epoch: 07 May)

Event Time Altitude Azimuth Distance (km) Brightness Sun altitude
Rises 00:33:27 0° 324° (NW) 2,867 8.7 -29.8°
Reaches altitude 10° 00:35:39 10° 324° (NW) 1,981 7.8 -29.8°
Enters shadow 00:38:11 35° 325° (NW) 1,030 6.0 -29.8°
Maximum altitude 00:40:06 90° 160° (SSE) 647 - -29.8°
Drops below altitude 10° 00:44:51 10° 146° (SE) 2,112 - -29.8°
Sets 00:47:16 0° 146° (SSE) 3,074 - -29.8°
